Marion, OH

11:54 AM EDT on July 24, 2017 (GMT -0400)
Marion Municipal

Weather History for KMNN - November, 2011

Change the Weather History Date:

Tuesday, November 8, 2011

  Actual Average (KDLZ) Record (KDLZ)
Temperature  
Mean Temperature 58 °F -  
Max Temperature 68 °F 50 °F 73 °F (1945)
Min Temperature 48 °F 31 °F 12 °F (1971)
Degree Days  
Heating Degree Days 7    
Growing Degree Days 8 (Base 50)    
Moisture  
Dew Point 46 °F    
Average Humidity 69    
Maximum Humidity 86    
Minimum Humidity 48    
Precipitation  
Precipitation 0.00 in - - ()
Sea Level Pressure  
Sea Level Pressure 30.15 in    
Wind  
Wind Speed 9 mph (South)    
Max Wind Speed 17 mph    
Max Gust Speed -    
Visibility 10 miles    
Events      
Averages and records for this station are not official NWS values.
T = Trace of Precipitation, MM = Missing Value Source: NWS Daily Summary

Daily Weather History Graph

Daily Weather History Graph

Search for Another Location

Airport or City:

Trip Planner

Search our weather history database for the weather conditions in past years. The results will help you decide how hot, cold, wet, or windy it might be!

Date:

Astronomy

Nov. 08, 2011 Rise Set
Actual Time 7:10 AM EST 5:21 PM EST
Civil Twilight 6:41 AM EST 5:49 PM EST
Nautical Twilight 6:08 AM EST 6:22 PM EST
Astronomical Twilight 5:36 AM EST 6:54 PM EST
Moon 4:00 PM EST (11/8) 5:07 AM EST (11/8)
Length of Visible Light 11h 08m
Length of Day
10h 10m
Waxing Gibbous, 96% of the Moon is Illuminated
Nov 8
Waxing Gibbous
Nov 10
Full
Nov 18
Last Quarter
Nov 25
New
Dec 2
First Quarter

Hourly Weather History & Observations

Time (EST) Temp. Dew Point Humidity Pressure Visibility Wind Dir Wind Speed Gust Speed Precip Events Conditions
12:53 AM 51.1 °F 46.0 °F 83% 30.23 in 10.0 mi South 8.1 mph - N/A   Partly Cloudy
1:53 AM 48.0 °F 44.1 °F 86% 30.22 in 7.0 mi SSE 5.8 mph - N/A   Clear
2:53 AM 48.9 °F 44.1 °F 83% 30.21 in 10.0 mi SSE 6.9 mph - N/A   Partly Cloudy
3:53 AM 51.1 °F 46.0 °F 83% 30.21 in 10.0 mi South 6.9 mph - N/A   Overcast
4:53 AM 50.0 °F 44.1 °F 80% 30.21 in 10.0 mi South 6.9 mph - N/A   Mostly Cloudy
5:53 AM 48.0 °F 43.0 °F 83% 30.20 in 10.0 mi South 6.9 mph - N/A   Partly Cloudy
7:53 AM 50.0 °F 43.0 °F 77% 30.22 in 10.0 mi South 6.9 mph - N/A   Clear
8:53 AM 53.1 °F 45.0 °F 74% 30.21 in 10.0 mi South 9.2 mph - N/A   Clear
9:53 AM 57.9 °F 46.9 °F 67% 30.19 in 10.0 mi South 10.4 mph - N/A   Clear
10:53 AM 63.0 °F 48.0 °F 58% 30.17 in 10.0 mi South 13.8 mph - N/A   Clear
11:53 AM 66.9 °F 48.9 °F 52% 30.15 in 10.0 mi SSW 11.5 mph - N/A   Clear
12:53 PM 68.0 °F 48.0 °F 49% 30.12 in 10.0 mi SW 16.1 mph - N/A   Clear
1:53 PM 68.0 °F 48.0 °F 49% 30.11 in 10.0 mi SSW 16.1 mph - N/A   Scattered Clouds
2:53 PM 66.9 °F 46.9 °F 49% 30.09 in 10.0 mi SSW 12.7 mph - N/A   Mostly Cloudy
3:53 PM 66.0 °F 46.0 °F 48% 30.09 in 10.0 mi SSW 17.3 mph - N/A   Clear
4:53 PM 63.0 °F 46.0 °F 54% 30.09 in 10.0 mi SSW 9.2 mph - N/A   Clear
6:53 PM 55.0 °F 45.0 °F 69% 30.10 in 10.0 mi South 6.9 mph - N/A   Clear
7:53 PM 54.0 °F 45.0 °F 72% 30.10 in 10.0 mi South 6.9 mph - N/A   Clear
8:53 PM 53.1 °F 45.0 °F 74% 30.09 in 10.0 mi SSE 6.9 mph - N/A   Clear
9:53 PM 53.1 °F 45.0 °F 74% 30.08 in 10.0 mi South 6.9 mph - N/A   Clear
10:53 PM 53.1 °F 46.0 °F 77% 30.07 in 10.0 mi South 6.9 mph - N/A   Clear
11:53 PM 52.0 °F 45.0 °F 77% 30.05 in 10.0 mi South 8.1 mph - N/A   Clear